This is the latest recevied weather packets stored in our database for station/object KGRR-WX. If no packets are shown the sender has not sent any weather packets the latest 10 day(s).
| Time | Temp. | Humidity | Pressure | Rain* | Wind** | Luminosity | Snow |
|---|---|---|---|---|---|---|---|
| 1788420610 | 22.22° C | 92% | 984.8 hPa | 0 mm | - | - | - |
| 1788419709 | 22.22° C | 92% | 984.8 hPa | 0 mm | - | - | - |
| 1788418806 | 22.78° C | 92% | 984.8 hPa | 0 mm | - | - | - |
| 1788417973 | 22.78° C | 93% | 985.1 hPa | 0 mm | - | - | - |
| 1788417009 | 22.78° C | 92% | 984.8 hPa | 0 mm | - | - | - |
| 1788416109 | 22.78° C | 92% | 984.8 hPa | 0 mm | - | - | - |
| 1788415210 | 22.78° C | 92% | 984.8 hPa | 0 mm | - | - | - |
| 1788414309 | 22.78° C | 93% | 984.6 hPa | 0 mm | - | - | - |
| 1788413406 | 23.33° C | 89% | 984.6 hPa | 0 mm | - | - | - |
| 1788412508 | 23.33° C | 89% | 984.6 hPa | 0 mm | - | - | - |
| 1788411608 | 23.33° C | 89% | 984.6 hPa | 0 mm | - | - | - |
| 1788410752 | -17.78° C | 100% | - | 0 mm | - | - | - |
| 1788409805 | 23.89° C | 81% | 984.8 hPa | 0 mm | - | - | - |
| 1788408908 | 23.89° C | 81% | 984.8 hPa | 0 mm | - | - | - |
| 1788408009 | 23.89° C | 81% | 984.8 hPa | 0 mm | - | - | - |
| 1788407108 | 24.44° C | 77% | 985 hPa | 0 mm | - | - | - |
| 1788406208 | 24.44° C | 84% | 984.9 hPa | 0 mm | - | - | - |
| 1788405305 | 25° C | 84% | 984.9 hPa | 0 mm | - | - | - |
| 1788404408 | 25° C | 84% | 984.9 hPa | 0 mm | - | - | - |
| 1788403508 | 25.56° C | 78% | 984.9 hPa | 0 mm | - | - | - |
| 1788402605 | 25.56° C | 79% | 984.7 hPa | 0 mm | - | - | - |
| 1788401707 | 25.56° C | 79% | 984.7 hPa | 0 mm | - | - | - |
| 1788400807 | -17.78° C | 100% | - | 0 mm | - | - | - |
| 1788399918 | -17.78° C | 100% | - | 0 mm | - | - | - |
| 1788399008 | 26.67° C | 72% | 984.5 hPa | 0 mm | - | - | - |
* Rain latest hour (hover to see other rain measurements)
** Current wind speed in m/s (hover to see current wind gust speed)